Retour au catalogue

FENGYUN 1C DEB

ActifPO
NORAD 29889·DEBRIS·🇨🇳 China

Lancé May 10, 1999 depuis Taiyuan Satellite Launch Center

Loading…

Prochains Passages (prochaines 24 heures)

TLE

FraisSource: Space-Track

Époque: Sep 13, 2026, 20:57 UTC

1 29889U 99025GK  26256.87295069  .00000312  00000-0  17088-3 0  9991
2 29889  99.5124  36.1510 0153192 353.0767 160.2563 14.13875707 12027

Suivez FENGYUN 1C DEB en temps réel avec AllMySat

Download on the App Store